TimeEST,TemperatureF,Dew PointF,Humidity,Sea Level PressureIn,VisibilityMPH,Wind Direction,Wind SpeedMPH,Gust SpeedMPH,PrecipitationIn,Events,Conditions,WindDirDegrees,DateUTC
12:15 AM,6.8,-0.4,72,30.19,10.0,Calm,Calm,-,N/A,,Clear,0,2014-02-08 05:15:00
12:35 AM,6.8,-2.2,67,30.19,10.0,South,3.5,-,N/A,,Clear,190,2014-02-08 05:35:00
12:55 AM,3.2,-4.0,72,30.18,10.0,Calm,Calm,-,N/A,,Clear,0,2014-02-08 05:55:00
1:15 AM,3.2,-2.2,78,30.18,10.0,SW,3.5,-,N/A,,Clear,220,2014-02-08 06:15:00
1:35 AM,1.4,-2.2,85,30.18,10.0,Calm,Calm,-,N/A,,Clear,0,2014-02-08 06:35:00
1:55 AM,1.4,-4.0,78,30.19,10.0,Calm,Calm,-,N/A,,Clear,0,2014-02-08 06:55:00
2:15 AM,-9999,-9999,N/A,30.18,10.0,Calm,Calm,-,N/A,,Clear,0,2014-02-08 07:15:00
2:35 AM,-9999,-9999,N/A,30.19,10.0,North,3.5,-,N/A,,Clear,360,2014-02-08 07:35:00
2:55 AM,-9999,-9999,N/A,30.19,10.0,Calm,Calm,-,N/A,,Clear,0,2014-02-08 07:55:00
3:15 AM,-9999,-9999,N/A,30.19,9.0,Calm,Calm,-,N/A,,Clear,0,2014-02-08 08:15:00
3:35 AM,-2.2,-7.6,78,30.20,9.0,Calm,Calm,-,N/A,,Clear,0,2014-02-08 08:35:00
3:55 AM,-9999,-9999,N/A,30.20,10.0,Calm,Calm,-,N/A,,Clear,0,2014-02-08 08:55:00
4:15 AM,-9999,-9999,N/A,30.21,10.0,SSW,3.5,-,N/A,,Clear,200,2014-02-08 09:15:00
4:35 AM,-9999,-9999,N/A,30.22,10.0,Calm,Calm,-,N/A,,Clear,0,2014-02-08 09:35:00
4:55 AM,-9999,-9999,N/A,30.22,10.0,Calm,Calm,-,N/A,,Clear,0,2014-02-08 09:55:00
5:15 AM,-9999,-9999,N/A,30.23,10.0,Calm,Calm,-,N/A,,Clear,0,2014-02-08 10:15:00
5:35 AM,-4.0,-11.2,71,30.24,10.0,Calm,Calm,-,N/A,,Clear,0,2014-02-08 10:35:00
5:55 AM,-4.0,-11.2,71,30.25,10.0,Calm,Calm,-,N/A,,Clear,0,2014-02-08 10:55:00
6:15 AM,-4.0,-11.2,71,30.24,10.0,Calm,Calm,-,N/A,,Clear,0,2014-02-08 11:15:00
6:35 AM,-5.8,-14.8,65,30.25,3.0,Calm,Calm,-,N/A,,Clear,0,2014-02-08 11:35:00
6:55 AM,-5.8,-14.8,65,30.25,9.0,Calm,Calm,-,N/A,,Clear,0,2014-02-08 11:55:00
7:15 AM,-5.8,-13.0,71,30.25,7.0,Calm,Calm,-,N/A,,Clear,0,2014-02-08 12:15:00
7:35 AM,-5.8,-13.0,71,30.26,3.0,Calm,Calm,-,N/A,,Clear,0,2014-02-08 12:35:00
7:55 AM,-7.6,-14.8,71,30.26,9.0,Calm,Calm,-,N/A,,Clear,0,2014-02-08 12:55:00
8:15 AM,-4.0,-11.2,71,30.27,9.0,Calm,Calm,-,N/A,,Clear,0,2014-02-08 13:15:00
8:35 AM,-0.4,-7.6,72,30.26,9.0,Calm,Calm,-,N/A,,Clear,0,2014-02-08 13:35:00
8:55 AM,1.4,-5.8,72,30.27,10.0,Calm,Calm,-,N/A,,Clear,0,2014-02-08 13:55:00
9:15 AM,3.2,-2.2,78,30.27,10.0,Calm,Calm,-,N/A,,Clear,0,2014-02-08 14:15:00
9:35 AM,6.8,1.4,79,30.27,10.0,Calm,Calm,-,N/A,,Clear,0,2014-02-08 14:35:00
9:55 AM,12.2,6.8,79,30.26,10.0,NNE,4.6,-,N/A,,Clear,30,2014-02-08 14:55:00
10:15 AM,15.8,6.8,68,30.26,10.0,NNE,4.6,-,N/A,,Clear,30,2014-02-08 15:15:00
10:35 AM,17.6,3.2,53,30.25,10.0,NE,4.6,-,N/A,,Clear,50,2014-02-08 15:35:00
10:55 AM,19.4,1.4,46,30.24,10.0,Calm,Calm,-,N/A,,Clear,0,2014-02-08 15:55:00
11:15 AM,19.4,1.4,46,30.23,10.0,NW,3.5,-,N/A,,Clear,310,2014-02-08 16:15:00
11:35 AM,21.2,3.2,46,30.21,10.0,NNW,8.1,-,N/A,,Clear,330,2014-02-08 16:35:00
11:55 AM,21.2,1.4,42,30.20,10.0,WSW,3.5,-,N/A,,Clear,250,2014-02-08 16:55:00
12:15 PM,23.0,1.4,39,30.19,10.0,South,5.8,-,N/A,,Clear,170,2014-02-08 17:15:00
12:35 PM,24.8,3.2,40,30.18,10.0,South,6.9,-,N/A,,Clear,190,2014-02-08 17:35:00
12:55 PM,24.8,1.4,36,30.16,10.0,WSW,4.6,-,N/A,,Clear,240,2014-02-08 17:55:00
1:15 PM,26.6,1.4,34,30.14,10.0,Calm,Calm,-,N/A,,Clear,0,2014-02-08 18:15:00
1:35 PM,26.6,1.4,34,30.14,10.0,Calm,Calm,-,N/A,,Clear,0,2014-02-08 18:35:00
1:55 PM,26.6,1.4,34,30.14,10.0,Calm,Calm,-,N/A,,Clear,0,2014-02-08 18:55:00
2:15 PM,26.6,1.4,34,30.15,10.0,Calm,Calm,-,N/A,,Clear,0,2014-02-08 19:15:00
2:35 PM,26.6,1.4,34,30.15,10.0,SW,5.8,-,N/A,,Clear,220,2014-02-08 19:35:00
2:55 PM,26.6,1.4,34,30.15,10.0,SSW,8.1,-,N/A,,Clear,210,2014-02-08 19:55:00
3:15 PM,26.6,1.4,34,30.15,10.0,South,6.9,-,N/A,,Clear,180,2014-02-08 20:15:00
3:35 PM,26.6,1.4,34,30.14,10.0,SSW,8.1,-,N/A,,Clear,200,2014-02-08 20:35:00
3:55 PM,26.6,1.4,34,30.14,10.0,SSW,5.8,-,N/A,,Clear,200,2014-02-08 20:55:00
4:15 PM,26.6,1.4,34,30.13,10.0,SSW,6.9,-,N/A,,Clear,200,2014-02-08 21:15:00
4:35 PM,26.6,1.4,34,30.14,10.0,SSW,6.9,-,N/A,,Clear,200,2014-02-08 21:35:00
4:55 PM,26.6,3.2,37,30.15,10.0,South,5.8,-,N/A,,Clear,190,2014-02-08 21:55:00
5:15 PM,26.6,1.4,34,30.15,10.0,SSW,6.9,-,N/A,,Scattered Clouds,200,2014-02-08 22:15:00
5:35 PM,24.8,1.4,36,30.16,10.0,South,6.9,-,N/A,,Scattered Clouds,180,2014-02-08 22:35:00
5:55 PM,24.8,1.4,36,30.15,10.0,SSW,6.9,-,N/A,,Scattered Clouds,200,2014-02-08 22:55:00
6:15 PM,24.8,-0.4,34,30.16,10.0,South,5.8,-,N/A,,Partly Cloudy,190,2014-02-08 23:15:00
6:35 PM,24.8,-0.4,34,30.15,10.0,South,4.6,-,N/A,,Clear,180,2014-02-08 23:35:00
6:55 PM,23.0,1.4,39,30.15,10.0,Calm,Calm,-,N/A,,Clear,0,2014-02-08 23:55:00
7:15 PM,23.0,3.2,43,30.14,10.0,Calm,Calm,-,N/A,,Clear,0,2014-02-09 00:15:00
7:35 PM,21.2,3.2,46,30.13,10.0,Calm,Calm,-,N/A,,Partly Cloudy,0,2014-02-09 00:35:00
7:55 PM,21.2,6.8,54,30.13,10.0,Calm,Calm,-,N/A,,Clear,0,2014-02-09 00:55:00
8:15 PM,19.4,5.0,54,30.13,10.0,Calm,Calm,-,N/A,,Clear,0,2014-02-09 01:15:00
8:35 PM,19.4,5.0,54,30.12,10.0,Calm,Calm,-,N/A,,Clear,0,2014-02-09 01:35:00
8:55 PM,17.6,5.0,58,30.12,10.0,Calm,Calm,-,N/A,,Clear,0,2014-02-09 01:55:00
9:15 PM,15.8,5.0,62,30.13,10.0,Calm,Calm,-,N/A,,Clear,0,2014-02-09 02:15:00
9:35 PM,15.8,3.2,58,30.12,10.0,Calm,Calm,-,N/A,,Mostly Cloudy,0,2014-02-09 02:35:00
9:55 PM,15.8,5.0,62,30.13,10.0,Calm,Calm,-,N/A,,Overcast,0,2014-02-09 02:55:00
10:15 PM,15.8,6.8,68,30.13,10.0,Calm,Calm,-,N/A,,Overcast,0,2014-02-09 03:15:00
10:35 PM,17.6,5.0,58,30.13,10.0,Calm,Calm,-,N/A,,Mostly Cloudy,0,2014-02-09 03:35:00
10:55 PM,15.8,6.8,68,30.13,10.0,Calm,Calm,-,N/A,,Overcast,0,2014-02-09 03:55:00
11:15 PM,17.6,6.8,63,30.12,10.0,Calm,Calm,-,N/A,,Mostly Cloudy,0,2014-02-09 04:15:00
11:35 PM,17.6,5.0,58,30.12,10.0,Calm,Calm,-,N/A,,Scattered Clouds,0,2014-02-09 04:35:00
11:55 PM,17.6,5.0,58,30.12,10.0,Calm,Calm,-,N/A,,Mostly Cloudy,0,2014-02-09 04:55:00